Regional Weather Roundup
Issued by NWS

Home | Current Version | Previous Version | Text Only | Print | Product List | Glossary Off
Versions: 1 2 3 4 5 6 7 8 9 10 11 12 13 14 15 16 17 18 19 20 21 22 23 24 25 26 27 28 29 30 31 32 33 34 35 36 37 38 39 40 41 42 43 44 45 46 47 48 49 50

000
ASUS45 KBOU 252007
RWRCO

WEATHER ROUNDUP FOR COLORADO
NATIONAL WEATHER SERVICE DENVER/BOULDER CO
200 PM MDT WED MAY 25 2016

NOTE: "FAIR" INDICATES FEW OR NO CLOUDS BELOW 12000 FEET WITH NO
SIGNIFICANT WEATHER AND/OR OBSTRUCTIONS TO VISIBILITY.

COZ001>005-013-030-031-252100-
...NORTHWEST COLORADO...

CITY           SKY/WX    TMP DP  RH WIND       PRES   REMARKS
CRAIG          FAIR      66  25  21 SW15G29   30.04F
HAYDEN         FAIR      63  25  23 W18G26    30.05F
MEEKER         PTSUNNY   64  17  16 SW10G28   30.05F
MOUNT WERNER   NOT AVBL
STEAMBOAT SPGS PTSUNNY   60  25  26 W12G23    30.06F
WALDEN         FAIR      55  23  28 SW21G28   30.11F
$$

COZ006>008-011-252100-
...WEST CENTRAL VALLEYS...

CITY           SKY/WX    TMP DP  RH WIND       PRES   REMARKS
GRAND JUNCTION FAIR      70  24  17 CALM      30.00F
MONTROSE       FAIR      71  11  10 W18G24    30.05F
EAGLE          MOSUNNY   66  18  15 S22G29    30.06F
RIFLE          FAIR      71  23  16 W16G28    30.01F
DELTA          FAIR      75  14   9 SW8G17    30.02F
NUCLA          FAIR      70  10  10 W14G25    30.10F
$$

COZ017>023-064>068-252100-
...SOUTHWEST COLORADO...

CITY           SKY/WX    TMP DP  RH WIND       PRES   REMARKS
DURANGO        FAIR      65  11  12 VRB5      30.13F
CORTEZ         FAIR      70  15  12 SW9G21    30.09F
PAGOSA SPRINGS FAIR      62   3   9 S12G18    30.18S
TELLURIDE      FAIR      56   2  11 SW21G29   30.21S
WOLF CREEK PAS FAIR      37  12  35 S14G26    30.37S
$$

COZ009-010-012-014-032>034-037-058>063-252100-
...CENTRAL COLORADO...

CITY           SKY/WX    TMP DP  RH WIND       PRES   REMARKS
ASPEN          FAIR      62  16  16 W9        30.11F
BUENA VISTA    FAIR      61   1   9 W7        30.11F
COPPER MTN     NOT AVBL
BERTHOUD PASS  FAIR      34  27  75 W20       30.30S WCI  22
COTTONWOOD PAS FAIR      61  -8   6 NW5G22    30.21S
GUNNISON       FAIR      63  10  13 W15G24    30.13F
KREMMLING      FAIR      64  12  13 SW12G22   30.08F
LEADVILLE      FAIR      52  -3  10 W21G29    30.19S
MONARCH PASS   FAIR      41  12  30 W24G37    30.41S
SALIDA         FAIR      66   7   9 SE6       30.15F
SUNLIGHT       CLOUDY    45  23  42 CALM      30.28S
WILKERSON PASS FAIR      54   1  12 SW13G22   30.28S
$$

COZ069>075-252100-
...SAN LUIS VALLEY/SANGRE DE CRISTO MOUNTAINS...

CITY           SKY/WX    TMP DP  RH WIND       PRES   REMARKS
ALAMOSA        FAIR      69   2   7 W17G28    30.11S
LA VETA PASS   FAIR      59   9  13 S10G26    30.25S
SAGUACHE       FAIR      68   9  10 W16G22    30.09F
$$

COZ035-036-038>040-252100-
...NORTHERN COLORADO FRONT RANGE...

CITY           SKY/WX    TMP DP  RH WIND       PRES   REMARKS
DENVER INTL AP FAIR      70  40  33 E8        29.98F
DMNS CITY PARK   N/A     69  38  31 E3G15     29.96F
AURORA         PTSUNNY   71  42  35 E9G16     29.98F
FRONT RANGE AP PTSUNNY   68  37  32 NE3       29.99F
ERIE MUNI ARPT FAIR      67  43  41 E8        29.96F
BOULDER MUN AP FAIR      66  39  37 SE3       29.97F
CENTENNIAL     PTSUNNY   68  35  29 NE8       29.98F
BROOMFIELD     PTSUNNY   68  41  37 NE10G17   30.00F
FORT COLLINS   FAIR      70  43  37 S12G17    29.96F
LONGMONT       FAIR      70  39  31 S6        29.98F
$$

COZ041-046-047-076>085-087-088-252100-
...PIKES PEAK/PALMER DIVIDE AND SOUTHERN FOOTHILLS...

CITY           SKY/WX    TMP DP  RH WIND       PRES   REMARKS
COLO. SPRINGS  PTSUNNY   75  10   8 S21G37    29.99F
A. F. ACADEMY  FAIR      72   3   7 W13G24    29.99F
SCHRIEVER AFB  NOT AVBL
ELLICOTT       FAIR     N/A N/A N/A S15G29    30.00F
FALCON         FAIR      71  16  12 MISG      30.04F
FORT CARSON    FAIR      75  11   8 SW25G37   29.95F
LIMON          FAIR      70  39  32 VRB6      29.99F
MONUMENT HILL  FAIR      61  34  36 E13G21    30.05F
TRINIDAD       FAIR      78  11   8 E9        30.00F
$$

COZ042>045-048>051-090-091-252100-
...NORTHEAST COLORADO...

CITY           SKY/WX    TMP DP  RH WIND       PRES   REMARKS
GREELEY ARPT   FAIR      73  41  31 S14G20    29.96F
AKRON          FAIR      69  50  50 E10       29.98F
BURLINGTON     FAIR      74  51  44 CALM      29.96F
WRAY           NOT AVBL
STERLING       FAIR      73  45  35 S7        29.94S
HOLYOKE        FAIR      79  50  36 N3        29.94F
FORT MORGAN    FAIR      73  42  33 SE9       29.97F
$$

COZ086-089-092>099-252100-
...SOUTHEAST COLORADO...

CITY           SKY/WX    TMP DP  RH WIND       PRES   REMARKS
PUEBLO         FAIR      81  33  17 S10G22    29.94S
LA JUNTA       FAIR      80  28  15 VRB6      29.95F
LAMAR          FAIR      82  40  22 NW12      29.91F
SPRINGFIELD      N/A     81  13   7 SW9       29.95F
$$



USA.gov is the U.S. government's official web portal to all federal, state and local government web resources and services.